Location: �chenoz-la-M�line
(47.6009°N, 6.1354°E)
Time: 13:10:22
(UTC+00:00)

ADEOS - Pass Details

Date: 27 January 2021
Orbit: 792 x 794 km, 98.9° (Epoch: 02 March)

Event Time Altitude Azimuth Distance (km) Brightness Sun altitude
Rises 04:36:08 0° 14° (NNE) 3,305 7.0 -25.5°
Reaches altitude 10° 04:38:28 10° 14° (NNE) 2,371 6.2 -25.1°
Maximum altitude 04:43:43 84° 288° (WNW) 803 3.4 -24.3°
Enters shadow 04:47:41 18° 200° (SSW) 1,868 5.3 -23.6°
